Location: Kielce
(50.8833°N, 20.6167°E)
Time: 21:57:53
(UTC+02:00)

SR - Pass Details

Date: 28 April 2021
Orbit: 573 x 882 km, 66.7° (Epoch: 09 May)

Event Time Altitude Azimuth Distance (km) Brightness Sun altitude
Rises 07:02:25 0° 227° (SW) 3,371 ? 15.3°
Reaches altitude 10° 07:04:51 10° 230° (SW) 2,472 ? 15.7°
Maximum altitude 07:10:36 65° 312° (NW) 964 ? 16.6°
Drops below altitude 10° 07:16:32 10° 35° (NE) 2,549 ? 17.5°
Sets 07:19:05 0° 38° (NE) 3,484 ? 17.9°
